Wetbulb
72.88 73.62 74.28 75.14 75.97 76.92 77.57 78.36 78.30 79.61 78.48 76.40 75.67 75.77 75.76 76.75 76.80 77.75 78.34 78.06 77.58 77.82 78.23 76.60 76.50 77.04 76.46 77.09 78.40 78.07 76.19 74.55 74.88 74.84 72.52 74.16 74.50 74.21 74.09 74.39 73.79 74.16 74.85
72.01 73.37 74.44 75.22 75.68 76.55 77.80 78.62 78.90 79.96 78.73 77.84 78.12 78.40 77.45 77.14 78.06 78.25 78.68 79.54 78.29 78.43 78.23 78.37 76.28 74.96 71.84 72.81 75.08 76.18 74.44 75.28 76.11 72.09 71.68 68.30 70.65 73.46 74.38 75.04 74.51 74.26 74.13
70.64 72.51 74.05 75.00 75.81 76.38 77.64 78.33 79.35 79.63 79.78 79.74 78.73 78.40 79.01 77.79 76.43 77.01 77.02 78.32 78.42 78.62 78.82 78.15 77.85 77.82 76.43 73.78 75.19 74.52 72.94 72.97 75.24 75.70 72.23 68.21 66.73 70.04 72.22 74.75 73.50 75.69 73.95
70.69 72.20 73.16 74.73 75.12 75.97 77.49 78.92 79.48 79.75 79.81 80.31 79.46 79.96 76.58 75.54 75.76 76.39 76.65 77.49 78.23 77.45 78.30 78.75 78.66 78.36 76.75 77.29 75.31 76.11 74.16 72.04 69.92 73.72 74.61 74.50 73.03 68.76 67.55 71.49 73.44 75.83 75.46
69.18 69.90 71.60 73.47 74.30 74.67 75.64 77.72 79.26 79.84 80.25 80.20 79.58 77.92 78.04 76.34 75.74 74.97 77.46 79.84 78.72 78.11 77.82 78.76 77.95 78.09 77.75 77.83 77.65 77.24 76.75 75.36 73.43 70.30 70.54 74.26 74.11 74.41 70.00 67.74 69.75 71.98 73.52
68.74 69.80 71.16 72.62 73.03 74.15 74.74 76.12 78.59 79.48 80.06 79.59 79.41 78.74 77.45 76.80 75.16 74.44 72.39 70.33 69.54 69.67 72.97 73.78 75.27 76.97 76.86 76.52 76.39 77.24 76.89 76.39 75.67 74.68 74.37 69.53 70.04 70.88 71.16 69.44 71.28 70.73 72.60
68.55 69.31 70.09 71.11 72.87 73.12 73.98 74.99 77.83 78.90 79.44 79.05 78.40 77.77 75.62 74.05 73.41 72.76 70.62 71.98 68.62 67.63 71.18 74.77 74.39 72.43 74.67 74.89 75.31 75.50 76.23 75.83 75.26 75.60 74.68 74.85 72.03 71.24 72.61 71.67 71.11 69.46 72.77
69.33 69.99 71.04 71.80 72.16 72.67 73.93 75.29 77.92 77.67 76.81 75.47 75.24 74.76 73.05 71.80 71.05 72.06 70.29 69.45 68.77 69.49 73.55 71.82 71.75 71.97 72.83 72.75 74.04 72.12 72.87 74.73 74.78 74.93 75.53 74.53 74.75 75.31 70.85 71.62 71.58 69.56 69.64
69.79 70.73 71.73 71.42 71.95 73.20 75.13 74.89 75.73 75.01 74.68 74.29 73.89 73.23 72.70 71.69 70.58 71.04 70.90 69.13 71.60 69.10 71.06 70.83 70.50 71.10 71.33 71.92 73.19 70.08 72.06 73.18 73.70 74.22 74.78 74.66 74.87 75.20 75.09 72.40 69.94 71.04 68.05
70.29 70.78 71.52 71.27 72.79 73.94 74.61 73.91 74.50 73.93 73.77 73.02 72.30 71.69 71.05 70.52 70.47 70.24 69.28 68.95 69.02 70.11 70.01 70.04 70.25 70.48 71.16 71.43 72.32 70.34 71.15 72.42 71.15 71.71 72.84 73.73 73.68 74.59 74.64 74.61 73.26 71.26 70.01
70.53 71.06 71.75 71.89 72.97 73.70 73.42 72.80 72.98 73.02 72.14 71.59 70.73 70.07 69.79 69.29 69.33 68.60 68.24 68.64 69.73 70.40 70.27 69.90 69.92 70.25 70.42 71.28 71.30 70.96 70.84 70.10 70.41 71.08 71.87 72.17 73.37 73.07 73.67 73.95 74.17 74.25 72.93
70.66 71.32 72.15 72.10 72.26 72.14 72.25 71.63 72.16 71.74 71.38 70.90 69.50 69.16 69.22 69.01 67.94 68.14 68.63 69.36 69.28 69.99 70.18 70.85 71.36 70.14 69.23 69.74 69.67 69.12 69.12 68.56 68.57 69.37 70.14 70.61 71.68 72.73 73.24 73.50 73.51 73.83 74.85
69.44 71.20 71.76 71.42 71.60 71.54 71.51 71.58 71.21 70.83 70.51 69.64 68.50 68.44 68.54 68.42 67.98 67.45 67.56 68.23 68.93 69.31 69.47 70.45 69.59 69.46 69.26 68.44 68.35 68.16 66.89 66.70 67.07 68.25 68.47 69.21 70.13 70.26 71.77 72.51 72.65 73.51 74.13
69.91 70.65 71.06 73.02 72.42 72.65 71.73 71.32 70.80 70.52 69.73 68.62 67.73 67.81 67.58 67.04 66.30 66.80 67.68 68.80 70.21 69.50 69.69 68.95 68.10 69.27 68.28 67.43 67.17 66.24 64.67 63.10 61.50 63.80 66.87 68.04 68.33 69.13 70.80 71.46 72.35 73.08 73.48
69.03 70.20 70.46 71.51 71.70 71.71 71.77 71.41 70.87 70.21 69.38 68.04 67.14 67.15 67.38 66.74 65.90 66.54 68.31 68.68 69.43 68.79 69.31 68.33 67.80 67.61 66.44 64.12 64.42 63.73 61.60 57.84 58.87 60.82 64.54 66.59 67.50 66.87 69.01 70.93 71.71 72.57 72.77
66.73 69.30 70.74 71.00 71.23 71.36 71.06 70.75 69.82 69.54 69.03 67.58 66.37 67.06 66.93 66.29 65.72 66.58 67.82 69.26 68.58 68.55 68.24 67.08 66.56 65.45 63.71 60.64 60.38 60.82 58.38 57.50 57.63 58.14 62.26 64.56 66.07 66.87 65.55 66.03 67.50 71.21 72.81
64.22 67.68 70.16 71.35 72.48 71.37 71.33 69.98 69.33 69.52 68.10 67.34 66.96 66.27 65.82 65.13 65.97 66.94 67.43 68.09 67.79 67.93 67.04 66.30 66.41 65.19 65.02 59.47 58.08 59.12 58.10 57.07 57.90 58.08 61.63 65.22 66.63 66.76 69.68 66.71 65.31 65.65 63.92
64.12 65.81 69.55 71.36 71.84 71.85 71.28 70.04 69.40 68.38 67.40 66.83 66.24 65.88 65.22 64.89 66.86 67.82 68.04 68.15 67.42 67.40 66.44 66.42 66.77 65.38 64.26 58.49 57.01 58.00 57.83 57.28 57.46 57.43 63.00 64.89 67.07 69.29 69.80 70.45 70.48 70.85 71.50
67.33 68.58 69.93 72.06 72.00 71.05 70.39 69.36 68.29 67.86 67.00 66.14 66.36 65.21 64.64 66.04 66.78 66.80 67.42 67.71 66.20 67.64 66.30 66.59 66.47 64.71 64.06 58.19 56.18 56.62 55.35 54.09 54.65 58.56 65.27 67.48 68.74 65.08 61.45 69.76 70.05 70.71 71.15
69.00 69.42 70.40 70.96 70.76 71.01 69.85 68.86 67.93 67.51 66.69 66.54 65.91 65.67 65.95 66.91 66.31 66.83 67.22 67.23 66.64 67.36 64.76 65.93 65.13 61.78 63.28 57.37 55.15 56.05 54.42 54.16 56.16 61.32 65.55 63.61 65.18 60.13 58.30 69.19 70.06 69.29 70.04
68.96 70.39 70.70 70.01 70.45 69.86 69.44 68.36 67.91 67.20 67.67 67.24 66.26 65.42 66.44 67.23 67.28 67.28 67.60 66.97 67.12 67.00 66.46 65.46 65.17 63.28 61.71 60.19 54.80 54.73 53.45 57.75 59.52 64.11 65.60 67.50 59.02 55.78 54.57 56.60 70.76 68.09 70.06
69.13 70.01 70.03 69.40 71.10 70.62 69.57 68.79 67.70 68.60 68.12 67.61 66.01 65.99 66.20 66.19 65.94 67.35 67.68 67.63 67.38 66.32 65.62 65.98 62.93 61.40 62.99 57.33 56.04 53.16 52.64 57.17 59.82 60.86 60.42 57.75 52.30 51.25 53.06 57.39 54.69 53.96 60.57
69.22 69.90 69.02 68.69 69.58 71.34 70.07 68.76 69.82 69.42 68.30 67.07 66.36 67.29 66.64 66.19 66.94 66.81 67.17 65.37 64.90 65.63 62.42 59.98 59.57 59.67 60.83 60.99 55.11 53.49 53.13 56.35 57.87 57.85 56.16 55.60 53.60 54.33 56.76 55.32 55.78 56.87 62.73
68.31 69.07 68.49 67.62 69.45 70.28 70.35 70.21 70.46 69.53 68.42 67.03 66.85 67.43 65.98 66.29 66.94 65.14 63.71 63.91 62.71 62.10 60.53 60.28 59.00 58.53 59.35 60.43 57.31 55.14 56.69 55.92 59.93 59.78 58.57 56.27 56.37 55.84 58.03 58.70 58.50 59.61 60.76
68.16 68.98 68.33 68.40 69.57 71.24 70.30 70.41 69.99 69.12 67.37 66.54 66.15 66.01 64.18 63.85 65.75 65.79 63.25 62.41 61.96 58.31 59.66 57.94 58.75 56.50 56.54 57.92 46.88 47.01 54.85 54.32 55.82 55.34 60.22 58.32 58.17 58.21 58.17 58.97 59.35 59.29 58.83
64.24 66.79 68.21 68.55 68.54 68.64 69.87 68.47 64.15 65.66 64.23 65.50 64.80 64.20 62.85 62.11 62.03 62.41 60.88 50.01 50.91 46.82 45.95 44.54 49.07 54.85 49.80 43.63 44.79 45.16 45.49 47.62 50.58 59.73 59.43 59.40 60.25 59.09 59.35 59.30 59.31 60.73 60.20
MSLP
1008.67 1009.66 1010.46 1011.29 1012.04 1012.78 1013.56 1014.24 1014.74 1015.18 1015.71 1016.01 1015.97 1016.05 1015.71 1015.66 1015.43 1015.32 1015.52 1015.94 1016.17 1016.27 1016.25 1016.62 1016.23 1015.99 1016.16 1015.98 1015.86 1015.68 1016.20 1016.07 1015.84 1015.92 1015.76 1014.89 1014.99 1014.92 1014.34 1014.13 1014.15 1014.10 1014.16
1007.97 1008.99 1010.03 1010.91 1011.66 1012.36 1013.07 1013.78 1014.31 1014.82 1015.50 1015.49 1015.51 1015.34 1015.36 1015.07 1015.43 1015.26 1015.40 1015.42 1015.68 1016.11 1016.23 1016.24 1016.22 1016.55 1016.41 1015.65 1016.66 1015.88 1016.03 1015.80 1015.48 1015.53 1015.70 1015.24 1014.21 1013.65 1013.10 1012.94 1013.01 1013.08 1013.18
1007.19 1008.35 1009.42 1010.35 1011.08 1011.73 1012.57 1013.22 1013.92 1014.33 1014.90 1015.07 1015.00 1015.30 1015.57 1015.44 1015.02 1014.90 1015.30 1015.48 1015.27 1015.40 1015.79 1015.75 1015.60 1015.71 1016.01 1016.23 1015.83 1015.29 1015.45 1015.30 1015.22 1014.75 1014.98 1014.42 1013.16 1012.20 1011.78 1011.62 1011.78 1012.11 1012.51
1006.78 1007.74 1008.68 1009.65 1010.21 1010.90 1011.71 1012.61 1013.42 1013.96 1014.36 1014.72 1014.80 1014.71 1014.66 1014.48 1014.24 1014.57 1014.77 1015.06 1014.62 1014.60 1014.54 1014.72 1014.83 1014.95 1014.88 1014.79 1014.68 1014.48 1014.50 1014.71 1014.99 1014.85 1013.54 1013.84 1013.50 1012.84 1011.97 1011.05 1011.04 1011.49 1012.02
1006.03 1007.07 1007.90 1008.85 1009.50 1010.15 1010.84 1011.79 1012.94 1013.62 1013.90 1014.28 1014.71 1014.51 1014.64 1014.11 1013.75 1014.17 1014.38 1014.29 1014.23 1014.00 1014.21 1013.97 1013.92 1014.12 1014.30 1014.40 1014.30 1014.12 1013.93 1013.65 1013.72 1013.82 1013.85 1012.88 1013.21 1013.45 1013.27 1011.81 1010.78 1010.33 1010.57
1005.14 1006.39 1007.49 1008.26 1008.94 1009.63 1010.37 1011.17 1012.45 1013.30 1013.79 1014.12 1014.38 1014.61 1014.73 1014.75 1014.58 1014.61 1014.73 1014.00 1013.80 1013.66 1013.45 1013.32 1013.60 1013.74 1013.84 1013.95 1013.80 1013.68 1013.57 1013.48 1013.21 1013.04 1013.01 1012.98 1013.03 1012.48 1012.47 1011.88 1011.04 1010.08 1009.34
1004.04 1005.59 1006.78 1007.63 1008.49 1009.14 1010.00 1010.82 1012.00 1012.90 1013.39 1013.74 1013.97 1014.37 1014.73 1015.09 1015.01 1014.87 1014.53 1014.56 1014.12 1013.83 1013.71 1013.97 1014.09 1013.94 1013.77 1013.74 1013.56 1013.17 1013.09 1012.99 1012.78 1012.62 1012.21 1011.95 1012.16 1012.19 1011.43 1010.44 1009.68 1008.99 1008.16
1003.34 1004.86 1006.16 1007.36 1008.18 1008.91 1009.75 1010.55 1011.74 1012.66 1013.26 1013.77 1014.35 1014.73 1014.93 1014.72 1014.89 1014.65 1015.09 1014.96 1014.66 1014.27 1014.16 1014.18 1014.09 1014.00 1013.68 1013.55 1013.31 1012.91 1012.30 1011.85 1011.71 1011.77 1011.72 1011.28 1010.72 1011.01 1010.92 1010.46 1009.73 1008.94 1008.36
1002.76 1004.48 1005.98 1007.15 1007.92 1008.67 1009.74 1010.62 1011.78 1012.58 1013.16 1013.81 1014.36 1014.63 1014.87 1015.07 1015.12 1015.22 1015.25 1014.80 1014.85 1014.40 1014.24 1014.26 1014.10 1013.78 1013.54 1013.30 1013.07 1012.57 1012.08 1011.66 1011.15 1010.71 1010.68 1010.62 1010.10 1009.67 1009.35 1009.96 1009.63 1009.60 1008.47
1002.62 1004.10 1005.53 1006.63 1007.60 1008.46 1009.71 1010.56 1011.64 1012.39 1013.03 1013.58 1013.93 1014.29 1014.80 1014.97 1015.05 1015.09 1015.12 1015.04 1014.83 1014.68 1014.48 1014.28 1013.92 1013.57 1013.26 1012.98 1012.71 1012.16 1011.58 1011.19 1010.76 1010.22 1009.65 1009.25 1009.07 1008.78 1008.19 1008.20 1008.64 1009.02 1007.09
1002.76 1003.85 1005.12 1006.39 1007.41 1008.40 1009.46 1010.36 1011.43 1012.29 1012.92 1013.37 1013.78 1014.33 1014.65 1014.72 1014.95 1014.96 1014.89 1014.68 1014.45 1014.30 1014.09 1013.87 1013.58 1013.21 1012.84 1012.58 1012.31 1011.91 1011.44 1010.96 1010.40 1009.96 1009.28 1008.65 1008.49 1008.10 1007.53 1007.07 1007.01 1007.18 1008.10
1002.79 1003.59 1004.70 1006.19 1007.51 1008.29 1009.33 1010.40 1011.39 1012.13 1012.55 1013.35 1013.96 1014.32 1014.43 1014.71 1014.80 1014.76 1014.60 1014.44 1014.21 1013.91 1013.53 1013.20 1012.86 1012.65 1012.59 1012.42 1012.10 1011.48 1011.06 1010.54 1009.86 1009.09 1008.50 1007.69 1007.28 1006.79 1006.68 1006.32 1005.98 1005.70 1005.89
1003.16 1003.59 1004.50 1006.06 1007.42 1008.22 1009.30 1010.34 1011.48 1011.97 1012.48 1013.25 1013.64 1013.94 1014.15 1014.51 1014.61 1014.57 1014.41 1014.18 1013.83 1013.41 1013.04 1012.80 1012.57 1012.24 1012.02 1011.84 1011.59 1011.11 1010.62 1010.12 1009.31 1008.41 1007.48 1006.67 1006.28 1005.78 1005.41 1005.35 1005.33 1005.36 1005.29
1003.51 1003.92 1004.67 1005.95 1007.34 1008.33 1009.27 1010.36 1011.24 1011.60 1012.23 1012.85 1013.25 1013.54 1013.86 1014.15 1014.15 1014.08 1013.88 1013.53 1013.16 1012.80 1012.51 1012.22 1012.03 1011.67 1011.42 1011.21 1010.68 1010.10 1009.86 1009.59 1008.95 1008.12 1006.72 1005.68 1005.21 1004.73 1004.49 1004.42 1004.42 1004.73 1004.89
1003.95 1004.23 1004.92 1006.19 1007.55 1008.55 1009.53 1010.48 1011.05 1011.57 1012.08 1012.57 1012.94 1013.15 1013.57 1013.77 1013.79 1013.69 1013.36 1013.00 1012.74 1012.40 1012.11 1011.89 1011.64 1011.27 1011.04 1010.43 1010.20 1009.73 1009.11 1008.73 1007.76 1006.83 1005.61 1004.72 1004.05 1003.68 1003.35 1003.40 1003.30 1003.83 1004.17
1004.13 1004.73 1005.03 1006.45 1007.68 1008.67 1009.75 1010.49 1011.09 1011.50 1011.88 1012.30 1012.61 1012.89 1013.31 1013.42 1013.48 1013.35 1013.04 1012.60 1012.31 1012.12 1011.91 1011.72 1011.44 1010.94 1010.50 1010.39 1009.92 1009.27 1008.31 1007.39 1006.46 1005.32 1004.09 1003.36 1002.72 1002.36 1002.24 1002.34 1002.55 1002.79 1003.24
1003.77 1004.33 1005.17 1006.20 1007.52 1008.61 1009.65 1010.24 1010.76 1011.16 1011.74 1012.12 1012.42 1012.74 1012.95 1013.06 1013.06 1012.95 1012.69 1012.34 1012.21 1011.97 1011.62 1011.36 1010.82 1010.47 1010.28 1009.80 1009.28 1008.27 1007.09 1005.92 1004.85 1003.91 1002.76 1001.75 1001.19 1000.98 1000.84 1001.17 1001.59 1002.11 1002.63
1003.81 1003.91 1004.57 1005.86 1007.19 1008.36 1009.18 1009.90 1010.35 1010.93 1011.36 1011.81 1012.12 1012.39 1012.57 1012.55 1012.52 1012.42 1012.21 1012.10 1012.09 1011.83 1011.43 1011.01 1010.39 1010.04 1009.86 1009.44 1008.39 1007.08 1005.48 1004.22 1003.33 1002.59 1001.30 1000.71 1000.05 999.81 999.72 1000.02 1000.37 1000.77 1001.33
1004.06 1004.03 1004.44 1005.56 1006.80 1007.82 1008.89 1009.62 1010.15 1010.56 1011.03 1011.33 1011.66 1011.94 1012.12 1012.23 1012.21 1012.18 1011.97 1012.01 1012.03 1011.78 1011.25 1010.54 1010.07 1010.07 1009.65 1008.83 1007.63 1006.03 1004.65 1003.09 1002.10 1001.22 1000.05 999.28 998.92 998.97 999.47 999.71 999.91 1000.18 1000.24
1004.29 1004.51 1004.98 1005.74 1006.74 1007.74 1008.72 1009.33 1009.69 1010.13 1010.49 1010.89 1011.21 1011.53 1011.84 1011.96 1011.93 1012.00 1012.01 1012.12 1011.96 1011.01 1010.76 1010.20 1010.15 1010.09 1009.45 1008.21 1006.82 1005.29 1004.15 1002.42 1001.02 999.98 999.07 998.75 998.71 998.84 999.39 999.52 999.79 1000.10 999.83
1004.58 1004.86 1005.18 1005.77 1006.68 1007.72 1008.50 1008.97 1009.30 1009.68 1010.14 1010.57 1010.83 1011.15 1011.53 1011.67 1011.76 1011.76 1011.82 1011.72 1011.49 1011.01 1010.54 1009.84 1009.83 1009.85 1009.48 1008.28 1006.81 1004.82 1003.95 1001.92 1000.58 999.48 998.74 998.30 998.62 999.03 999.37 999.56 999.89 1000.28 1000.01
1004.63 1005.07 1005.35 1005.80 1006.52 1007.59 1008.25 1008.62 1008.91 1009.35 1009.86 1010.18 1010.54 1010.80 1011.11 1011.16 1011.02 1011.28 1011.36 1011.23 1011.00 1010.40 1009.82 1009.47 1009.33 1009.34 1009.44 1008.74 1007.28 1005.82 1004.03 1002.65 1000.79 1000.07 999.72 999.61 999.69 999.96 1000.08 1000.27 1000.69 1000.93 1000.88
1004.76 1005.04 1005.25 1005.72 1006.40 1007.27 1007.95 1008.29 1008.59 1009.09 1009.47 1009.89 1010.28 1010.43 1010.67 1010.72 1010.77 1010.72 1010.56 1010.31 1009.80 1009.77 1009.74 1009.53 1009.72 1009.43 1009.75 1009.16 1008.19 1007.27 1005.70 1004.06 1002.82 1002.23 1001.80 1000.63 1000.47 1000.44 1000.82 1001.08 1001.21 1001.29 1001.36
1004.83 1004.99 1005.39 1005.64 1006.28 1007.01 1007.78 1008.01 1008.33 1008.89 1009.26 1009.61 1009.85 1010.03 1010.24 1010.21 1009.99 1009.77 1009.28 1009.34 1009.45 1009.98 1010.34 1010.16 1010.42 1010.08 1009.99 1009.60 1008.82 1008.34 1006.78 1005.52 1004.30 1003.79 1002.78 1001.82 1001.63 1001.88 1002.03 1002.00 1002.19 1002.37 1002.32
1005.60 1005.33 1005.29 1005.64 1005.84 1006.42 1007.40 1008.02 1008.20 1008.66 1008.81 1009.37 1009.59 1009.45 1009.33 1009.19 1008.90 1008.92 1008.94 1009.42 1010.74 1011.36 1011.38 1011.60 1011.21 1011.11 1010.72 1010.46 1010.04 1009.34 1008.00 1007.05 1005.65 1004.83 1004.07 1003.20 1002.54 1002.81 1003.16 1003.53 1002.99 1003.33 1003.71
1006.16 1005.88 1005.51 1005.53 1005.62 1006.02 1007.46 1007.77 1009.01 1008.53 1009.16 1009.77 1009.04 1008.40 1008.23 1008.12 1007.98 1008.27 1009.97 1010.72 1010.91 1011.58 1012.08 1012.21 1012.00 1011.57 1011.58 1011.10 1009.92 1008.93 1008.33 1007.06 1005.78 1004.95 1004.01 1003.82 1003.06 1003.03 1003.51 1003.88 1004.25 1004.22 1004.51
Wind_Speed
16 16 15 14 14 13 12 11 11 10 7 8 8 8 7 4 7 7 8 8 9 10 9 8 11 10 11 11 10 6 8 9 12 6 8 10 10 14 12 12 12 13 12
18 16 16 15 13 13 12 12 11 10 7 8 7 4 4 5 1 3 3 5 8 10 11 10 11 9 1 10 14 11 9 10 10 7 3 5 10 13 15 12 11 14 11
18 17 17 15 14 13 12 11 11 10 10 11 6 5 5 7 7 6 6 6 10 10 11 12 12 12 8 11 13 10 13 10 10 13 7 5 9 9 5 10 11 8 9
17 17 17 17 15 14 13 12 11 10 10 10 8 7 7 7 7 5 4 7 9 10 11 11 11 10 11 9 11 12 13 11 10 11 10 13 12 11 11 9 8 9 9
20 20 19 17 15 14 13 12 11 10 8 10 9 7 9 7 5 4 6 8 9 12 12 13 12 10 8 10 12 13 12 12 10 10 12 10 9 11 11 12 11 10 11
20 19 18 17 15 14 13 12 12 9 9 9 9 8 5 5 6 8 8 9 10 11 10 9 9 10 9 11 11 12 13 12 13 11 9 10 9 12 10 12 13 14 10
22 21 20 18 16 16 15 13 12 11 10 10 7 5 3 3 6 6 7 8 10 11 10 10 9 10 11 12 12 12 12 13 12 13 12 11 11 11 14 13 13 12 13
19 18 19 17 18 17 15 13 13 11 9 8 6 4 2 4 5 5 7 8 9 9 10 11 11 12 12 12 11 12 12 13 12 16 13 12 12 11 13 14 14 13 13
20 20 19 18 18 16 15 14 14 12 10 8 5 3 0 3 6 7 7 8 9 10 11 12 13 13 13 13 12 12 13 13 14 14 14 13 13 13 13 11 11 15 16
18 19 18 18 17 16 15 14 14 12 9 7 5 2 2 3 5 6 8 10 10 11 12 12 13 13 13 13 12 13 13 13 13 13 16 14 14 15 14 12 13 16 15
15 17 18 17 16 16 15 13 13 11 9 5 4 1 2 4 6 7 8 10 11 11 11 12 13 13 13 13 13 15 16 17 17 18 18 19 18 14 14 13 13 13 9
14 16 17 16 15 15 13 13 11 10 7 5 3 2 2 4 6 8 10 11 12 12 12 12 13 13 13 14 15 17 18 19 22 21 21 21 15 18 17 14 17 14 12
10 13 16 15 14 14 13 12 10 10 8 6 4 2 2 5 7 9 10 11 12 13 13 12 14 14 13 14 16 17 19 21 22 24 24 22 21 20 16 16 15 13 12
10 13 14 13 13 12 12 11 11 9 7 6 4 2 4 6 7 8 10 11 11 13 13 11 12 13 14 16 18 17 17 21 21 24 26 23 23 22 20 17 17 15 12
10 13 13 12 12 12 12 12 10 8 6 5 4 3 4 6 8 10 11 12 11 13 13 14 15 14 14 12 18 20 20 20 21 21 23 23 27 29 24 14 16 16 13
10 12 12 14 14 14 13 12 10 9 7 5 3 3 5 6 8 10 11 11 12 12 13 14 15 15 14 20 25 22 20 19 20 18 20 20 27 25 24 24 22 16 14
10 12 14 14 13 14 14 13 11 8 7 4 3 3 4 6 7 9 11 11 12 12 13 13 14 14 17 21 26 32 18 17 19 19 18 17 15 19 20 21 20 18 12
12 11 12 15 15 15 14 12 10 9 7 5 4 4 4 5 7 8 9 10 10 12 12 13 12 12 15 21 28 32 19 15 18 19 19 17 17 17 16 16 17 19 17
10 8 9 13 15 16 14 12 10 9 7 6 5 4 3 5 6 8 10 9 9 10 10 11 13 15 17 23 26 29 19 15 16 16 17 15 15 15 15 14 14 14 14
5 6 10 13 15 14 14 12 10 9 8 6 4 2 3 4 6 9 9 8 10 9 10 12 11 13 17 24 28 29 16 13 10 11 13 15 14 7 9 11 12 12 13
5 9 11 13 14 12 13 11 10 9 6 4 4 3 4 5 7 7 8 7 9 10 9 8 9 13 16 21 30 38 17 10 8 8 5 6 6 3 6 8 8 6 4
7 10 11 12 12 12 12 11 10 7 6 5 4 4 5 7 6 7 7 9 8 10 8 8 9 10 13 19 26 35 36 28 11 10 8 8 14 11 10 4 7 8 7
9 11 12 12 11 12 12 12 9 8 7 6 6 6 6 7 8 7 9 10 6 2 9 9 10 11 9 10 20 25 30 24 16 15 14 20 15 15 18 18 12 5 2
8 9 11 12 12 11 12 11 10 9 8 7 7 7 7 8 8 7 7 4 6 8 8 8 8 9 6 10 10 12 14 17 13 12 11 16 19 21 15 14 13 10 9
10 11 10 11 12 12 12 10 9 9 7 5 7 7 9 10 8 8 3 3 8 6 5 6 6 7 10 9 14 11 12 10 9 9 3 6 10 10 10 9 11 10 9
10 12 13 14 12 5 11 7 13 17 8 7 10 7 7 5 6 3 7 15 13 8 3 3 3 4 5 15 13 17 16 20 17 11 11 4 6 11 12 11 10 10 8
Wind_Direction
171 168 180 175 175 181 185 192 197 190 198 205 203 224 234 233 246 237 243 256 256 261 266 255 274 264 247 267 291 256 250 252 261 218 259 270 219 250 248 243 242 249 241
170 170 176 178 185 184 193 194 207 194 190 210 236 246 236 233 201 248 293 248 256 267 264 259 262 262 251 271 280 268 256 245 251 261 212 263 262 220 233 227 229 239 245
173 178 178 185 188 192 191 198 200 206 197 234 210 233 257 247 246 257 281 290 266 269 268 264 265 265 245 240 249 254 252 253 269 252 214 226 233 256 233 221 229 232 250
180 180 182 185 194 190 187 189 195 198 202 209 237 259 284 306 323 307 339 285 269 274 263 256 269 271 283 281 262 256 254 247 236 263 238 227 271 274 279 251 208 203 222
181 184 186 184 192 187 182 175 180 190 217 197 238 228 219 256 312 319 286 258 260 248 261 256 257 259 266 277 271 268 259 258 254 236 247 268 241 239 256 261 266 231 216
183 184 184 180 187 183 184 174 167 189 197 201 202 223 287 284 307 339 308 301 325 310 299 320 338 329 292 278 282 282 274 266 266 261 245 236 244 241 226 245 253 261 257
183 183 188 186 185 184 184 178 166 184 190 194 189 191 213 290 279 312 312 335 313 315 322 346 323 311 308 302 297 286 277 276 267 257 257 247 242 234 256 233 240 245 228
177 188 183 190 186 183 183 180 167 168 164 159 160 165 185 299 305 340 335 306 308 297 329 307 307 309 303 298 296 289 288 285 263 266 260 257 252 235 241 253 256 244 258
178 183 185 189 185 184 174 179 168 167 168 159 165 175 276 323 326 320 315 302 321 312 311 316 301 301 299 298 299 286 292 292 287 272 257 257 257 252 239 240 241 288 255
184 181 186 187 187 180 179 178 168 165 164 166 170 153 317 319 327 316 307 305 298 296 299 297 294 299 298 296 292 287 283 285 286 285 280 264 255 257 254 239 225 225 260
197 187 188 184 192 180 179 175 172 160 165 181 135 211 323 333 308 304 302 297 299 298 294 294 293 290 293 294 296 292 285 280 276 270 269 264 262 257 256 255 249 243 221
203 198 191 180 191 188 176 179 171 169 165 154 171 197 328 309 307 297 300 301 299 296 290 284 282 291 295 292 294 294 292 290 283 273 266 264 259 253 248 249 253 255 251
218 210 186 186 191 191 182 176 175 178 168 173 184 203 281 289 290 295 300 299 295 291 298 296 298 294 302 303 292 290 290 288 289 284 267 260 258 255 250 242 244 242 244
230 216 194 184 190 197 183 180 188 174 173 181 188 230 280 295 296 300 295 292 295 299 286 296 298 305 309 303 293 297 304 296 285 282 278 266 259 256 250 242 238 236 233
234 227 202 185 193 198 183 191 185 176 177 179 202 256 284 289 300 303 304 301 308 297 313 311 303 311 309 301 320 305 301 288 281 282 267 266 260 254 251 243 235 228 230
249 237 211 195 199 199 192 193 185 185 176 192 217 275 284 298 298 298 309 307 309 323 307 318 307 321 310 321 310 304 295 284 277 278 265 259 259 255 248 234 234 227 219
253 231 223 203 195 196 196 193 188 171 178 189 214 257 286 288 296 307 305 319 317 314 317 314 311 322 322 317 308 300 292 287 277 274 264 259 255 252 245 228 222 223 227
288 251 206 197 191 194 192 193 175 177 181 188 222 247 265 301 312 309 313 311 318 320 325 309 324 323 323 320 309 307 301 282 279 271 258 253 254 248 239 234 227 221 217
286 262 207 188 186 191 181 179 183 180 186 204 227 239 283 309 323 316 313 320 318 310 306 328 328 338 331 324 315 335 320 291 279 270 257 248 244 249 228 230 221 218 214
261 210 197 187 179 184 178 185 186 190 201 209 217 227 277 300 317 312 312 308 302 296 326 320 1 348 337 336 326 327 325 291 276 261 258 260 268 268 224 219 217 210 215
227 198 187 188 178 181 183 192 192 201 198 197 200 221 254 274 284 288 302 302 295 305 311 329 356 8 347 339 334 329 331 307 288 290 263 263 244 162 199 238 218 227 299
231 201 198 197 172 181 192 197 203 189 186 197 211 233 245 257 286 292 296 296 289 279 292 359 1 5 356 338 340 336 342 1 3 14 30 33 60 67 61 44 32 49 24
238 210 213 199 189 191 198 203 198 186 192 197 216 245 248 259 264 275 277 270 256 271 347 357 350 8 351 341 336 337 336 356 31 27 13 58 56 64 62 55 38 28 18
261 235 229 216 207 196 206 217 187 190 188 204 222 238 239 238 248 267 274 308 335 12 349 355 343 350 1 340 346 342 341 350 7 16 10 49 61 56 53 54 50 43 40
303 291 244 237 239 199 200 217 204 194 184 217 246 238 239 226 242 234 358 348 60 35 357 9 349 355 348 334 319 313 2 351 316 335 321 48 64 57 60 59 55 49 39
303 294 271 261 251 212 203 122 54 338 3 328 252 241 273 294 251 251 99 39 102 131 138 194 320 35 329 303 355 343 345 354 6 12 25 31 88 90 76 64 66 68 55